Weather History for KBIF - March, 2014

Change the Weather History Date:

Saturday, March 1, 2014

  Actual Average Record
Temperature  
Mean Temperature 66 °F -  
Max Temperature 75 °F - - ()
Min Temperature 56 °F - - ()
Growing Degree Days 16 (Base 50)    
Moisture  
Dew Point 27 °F    
Average Humidity 23    
Maximum Humidity 51    
Minimum Humidity 13    
Precipitation  
Precipitation 0.00 in - - ()
Sea Level Pressure  
Sea Level Pressure 29.87 in    
Wind  
Wind Speed 12 mph (SW)    
Max Wind Speed 21 mph    
Max Gust Speed 33 mph    
Visibility 12 miles    
Events      
T = Trace of Precipitation, MM = Missing Value Source: NWS Daily Summary

Daily Weather History Graph

Daily Weather History Graph

Search for Another Location

Airport or City:

Trip Planner

Search our weather history database for the weather conditions in past years. The results will help you decide how hot, cold, wet, or windy it might be!

Date:

Astronomy

Mar. 01, 2014 Rise Set
Actual Time 6:32 AM MST 6:03 PM MST
Civil Twilight 6:08 AM MST 6:27 PM MST
Nautical Twilight 5:39 AM MST 6:56 PM MST
Astronomical Twilight 5:11 AM MST 7:24 PM MST
Moon 6:31 AM MST (3/1) 6:48 PM MST (3/1)
Length of Visible Light 12h 19m
Length of Day
11h 30m
New Moon, 0% of the Moon is Illuminated
Mar 1
New Moon
Mar 8
First Quarter
Mar 16
Full
Mar 23
Last Quarter
Mar 30
New

Hourly Weather History & Observations

Time (MST) Temp. Dew Point Humidity Pressure Visibility Wind Dir Wind Speed Gust Speed Precip Events Conditions
12:56 AM 66.4 °F 24.6 °F 21% 29.82 in 12.0 mi West 10.4 mph 18.4 mph N/A   Clear
1:56 AM 65.1 °F 24.6 °F 22% 29.84 in 12.0 mi West 6.9 mph - N/A   Clear
2:56 AM 63.0 °F 25.2 °F 24% 29.84 in 12.0 mi WSW 8.1 mph - N/A   Clear
3:56 AM 63.9 °F 24.8 °F 23% 29.83 in 12.0 mi SSW 11.5 mph 21.9 mph N/A   Clear
4:56 AM 63.7 °F 26.1 °F 24% 29.83 in 12.0 mi SSW 13.8 mph 19.6 mph N/A   Clear
5:56 AM 62.8 °F 24.6 °F 23% 29.86 in 12.0 mi SE 5.8 mph - N/A   Clear
6:56 AM 56.5 °F 23.4 °F 28% 29.88 in 12.0 mi ESE 6.9 mph - N/A   Clear
7:56 AM 60.4 °F 23.5 °F 24% 29.90 in 12.0 mi SSE 8.1 mph - N/A   Clear
8:56 AM 65.7 °F 20.3 °F 18% 29.91 in 12.0 mi SSW 16.1 mph 21.9 mph N/A   Clear
9:56 AM 69.3 °F 17.2 °F 14% 29.88 in 12.0 mi SSW 15.0 mph 24.2 mph N/A   Clear
10:56 AM 72.0 °F 17.2 °F 13% 29.86 in 12.0 mi WSW 15.0 mph 24.2 mph N/A   Clear
11:51 AM 75.2 °F 24.8 °F 15% 29.99 in 12.0 mi SSW 12.7 mph 20.7 mph N/A   Partly Cloudy
11:56 AM 74.3 °F 23.7 °F 15% 29.82 in 12.0 mi SW 11.5 mph 20.7 mph N/A   Partly Cloudy
12:24 PM 75.2 °F 23.0 °F 14% 29.98 in 12.0 mi SSW 16.1 mph 21.9 mph N/A   Clear
12:33 PM 75.2 °F 23.0 °F 14% 29.97 in 12.0 mi WSW 17.3 mph 28.8 mph N/A   Clear
12:45 PM 75.2 °F 21.2 °F 13% 29.97 in 12.0 mi SSW 19.6 mph 28.8 mph N/A   Clear
12:56 PM 75.0 °F 21.2 °F 13% 29.79 in 12.0 mi SW 15.0 mph 20.7 mph N/A   Clear
1:45 PM 75.2 °F 23.0 °F 14% 29.93 in 12.0 mi SSW 12.7 mph 17.3 mph N/A   Scattered Clouds
1:54 PM 75.2 °F 23.0 °F 14% 29.93 in 12.0 mi WSW 16.1 mph 24.2 mph N/A   Partly Cloudy
1:56 PM 75.6 °F 22.8 °F 14% 29.77 in 12.0 mi WSW 12.7 mph 24.2 mph N/A   Partly Cloudy
1:58 PM 75.2 °F 23.0 °F 14% 29.93 in 12.0 mi SSW 16.1 mph 31.1 mph N/A   Scattered Clouds
2:12 PM 75.2 °F 23.0 °F 14% 29.92 in 12.0 mi SSW 17.3 mph 26.5 mph N/A   Scattered Clouds
2:35 PM 75.2 °F 23.0 °F 14% 29.92 in 12.0 mi SSW 13.8 mph 26.5 mph N/A   Partly Cloudy
2:47 PM 75.2 °F 23.0 °F 14% 29.92 in 12.0 mi SW 16.1 mph 25.3 mph N/A   Scattered Clouds
2:56 PM 74.8 °F 24.3 °F 15% 29.76 in 12.0 mi SSW 16.1 mph 26.5 mph N/A   Scattered Clouds
3:13 PM 75.2 °F 24.8 °F 15% 29.91 in 12.0 mi South 15.0 mph 23.0 mph N/A   Mostly Cloudy
3:34 PM 75.2 °F 28.4 °F 18% 29.91 in 12.0 mi WSW 17.3 mph 24.2 mph N/A   Mostly Cloudy
3:56 PM 73.9 °F 28.0 °F 18% 29.75 in 9.0 mi West 20.7 mph 32.2 mph N/A   Mostly Cloudy
4:56 PM 72.3 °F 28.8 °F 20% 29.75 in 11.0 mi West 19.6 mph 33.4 mph N/A   Scattered Clouds
5:03 PM 71.6 °F 32.0 °F 23% 29.92 in 9.0 mi WNW 16.1 mph 29.9 mph N/A   Scattered Clouds
5:56 PM 63.5 °F 37.4 °F 38% 29.83 in 10.0 mi NNW 12.7 mph 27.6 mph N/A   Mostly Cloudy
6:56 PM 62.1 °F 37.8 °F 41% 29.86 in 12.0 mi West 3.5 mph 25.3 mph N/A   Overcast
7:56 PM 61.3 °F 37.9 °F 42% 29.87 in 12.0 mi NW 8.1 mph 17.3 mph N/A   Mostly Cloudy
8:56 PM 60.4 °F 38.1 °F 44% 29.88 in 12.0 mi NW 10.4 mph 16.1 mph N/A   Mostly Cloudy
9:56 PM 59.9 °F 38.3 °F 45% 29.87 in 12.0 mi NW 9.2 mph - N/A   Overcast
10:56 PM 58.5 °F 38.7 °F 48% 29.86 in 12.0 mi North 8.1 mph - N/A   Mostly Cloudy
11:56 PM 58.1 °F 39.9 °F 51% 29.87 in 12.0 mi NNW 5.8 mph - N/A   Mostly Cloudy